Location: Bailleul
(50.3375°N, 2.8513°E)
Time: 04:38:34
(UTC+00:00)

Cosmos 1980 - Pass Details

Date: 25 October 2021
Orbit: 839 x 847 km, 71.0° (Epoch: 01 December)

Event Time Altitude Azimuth Distance (km) Brightness Sun altitude
Rises 04:50:45 0° 332° (NNW) 3,409 6.6 -16.0°
Reaches altitude 10° 04:53:17 10° 338° (NNW) 2,471 5.9 -15.6°
Maximum altitude 04:58:48 50° 53° (NE) 1,074 4.6 -14.7°
Drops below altitude 10° 05:04:16 10° 129° (SE) 2,463 7.0 -13.9°
Sets 05:06:48 0° 134° (SE) 3,396 7.7 -13.5°
